Time,TemperatureF,DewpointF,PressureIn,WindDirection,WindDirectionDegrees,WindSpeedMPH,WindSpeedGustMPH,Humidity,HourlyPrecipIn,Conditions,Clouds,dailyrainin,SoftwareType,DateUTC
2013-03-17 00:00:00,65.4,60.8,29.71,SW,219,13.0,15.0,85,0.00,,,0.00,Wunderground v.1.15,2013-03-17 05:00:00,
2013-03-17 00:05:00,65.4,60.8,29.71,SW,229,13.0,17.0,85,0.00,,,0.00,Wunderground v.1.15,2013-03-17 05:05:00,
2013-03-17 00:11:00,65.3,60.7,29.71,SSW,194,13.0,13.0,85,0.00,,,0.00,Wunderground v.1.15,2013-03-17 05:11:00,
2013-03-17 00:16:00,65.2,60.6,29.71,South,174,11.0,13.0,85,0.00,,,0.00,Wunderground v.1.15,2013-03-17 05:16:00,
2013-03-17 00:22:00,65.3,60.7,29.72,SSW,205,12.0,14.0,85,0.00,,,0.00,Wunderground v.1.15,2013-03-17 05:22:00,
2013-03-17 00:27:00,65.4,60.8,29.71,SW,233,15.0,15.0,85,0.00,,,0.00,Wunderground v.1.15,2013-03-17 05:27:00,
2013-03-17 00:33:00,65.5,60.5,29.72,SSW,212,14.0,18.0,84,0.00,,,0.00,Wunderground v.1.15,2013-03-17 05:33:00,
2013-03-17 00:38:00,65.5,60.5,29.71,SW,218,12.0,20.0,84,0.00,,,0.00,Wunderground v.1.15,2013-03-17 05:38:00,
2013-03-17 00:44:00,65.6,60.6,29.72,SSW,204,12.0,19.0,84,0.00,,,0.00,Wunderground v.1.15,2013-03-17 05:44:00,
2013-03-17 00:49:00,65.5,60.5,29.72,SSW,211,12.0,19.0,84,0.00,,,0.00,Wunderground v.1.15,2013-03-17 05:49:00,
2013-03-17 00:54:00,65.4,60.8,29.72,South,179,11.0,15.0,85,0.00,,,0.00,Wunderground v.1.15,2013-03-17 05:54:00,
2013-03-17 01:00:00,65.4,60.8,29.72,WSW,239,11.0,11.0,85,0.00,,,0.00,Wunderground v.1.15,2013-03-17 06:00:00,
2013-03-17 01:05:00,65.4,60.4,29.72,SSW,208,12.0,21.0,84,0.00,,,0.00,Wunderground v.1.15,2013-03-17 06:05:00,
2013-03-17 01:10:00,65.4,60.4,29.72,SSW,201,13.0,15.0,84,0.00,,,0.00,Wunderground v.1.15,2013-03-17 06:10:00,
2013-03-17 01:16:00,65.5,60.5,29.72,SW,221,14.0,22.0,84,0.00,,,0.00,Wunderground v.1.15,2013-03-17 06:16:00,
2013-03-17 01:22:00,65.5,60.5,29.72,SSW,210,14.0,20.0,84,0.00,,,0.00,Wunderground v.1.15,2013-03-17 06:22:00,
2013-03-17 01:28:00,65.6,60.6,29.72,SSW,211,15.0,22.0,84,0.00,,,0.00,Wunderground v.1.15,2013-03-17 06:28:00,
2013-03-17 01:33:00,65.5,60.5,29.71,SSW,207,14.0,17.0,84,0.00,,,0.00,Wunderground v.1.15,2013-03-17 06:33:00,
2013-03-17 01:39:00,65.5,60.5,29.71,SW,225,14.0,17.0,84,0.00,,,0.00,Wunderground v.1.15,2013-03-17 06:39:00,
2013-03-17 01:44:00,65.5,60.5,29.71,SW,233,14.0,16.0,84,0.00,,,0.00,Wunderground v.1.15,2013-03-17 06:44:00,
2013-03-17 01:49:00,65.4,60.4,29.71,SW,219,14.0,21.0,84,0.00,,,0.00,Wunderground v.1.15,2013-03-17 06:49:00,
2013-03-17 01:54:00,65.4,60.4,29.71,SW,229,16.0,20.0,84,0.00,,,0.00,Wunderground v.1.15,2013-03-17 06:54:00,
2013-03-17 01:59:00,65.5,60.5,29.71,SW,217,16.0,20.0,84,0.00,,,0.00,Wunderground v.1.15,2013-03-17 06:59:00,
2013-03-17 02:04:00,65.4,60.4,29.71,SW,232,15.0,20.0,84,0.00,,,0.00,Wunderground v.1.15,2013-03-17 07:04:00,
2013-03-17 02:09:00,65.4,60.4,29.71,SW,219,16.0,20.0,84,0.00,,,0.00,Wunderground v.1.15,2013-03-17 07:09:00,
2013-03-17 02:15:00,65.4,60.4,29.71,SSW,204,15.0,18.0,84,0.00,,,0.00,Wunderground v.1.15,2013-03-17 07:15:00,
2013-03-17 02:21:00,65.3,60.3,29.71,SSE,159,14.0,15.0,84,0.00,,,0.00,Wunderground v.1.15,2013-03-17 07:21:00,
2013-03-17 02:27:00,65.3,60.3,29.71,SW,221,14.0,19.0,84,0.00,,,0.00,Wunderground v.1.15,2013-03-17 07:27:00,
2013-03-17 02:33:00,65.3,60.3,29.70,SW,232,15.0,18.0,84,0.00,,,0.00,Wunderground v.1.15,2013-03-17 07:33:00,
2013-03-17 02:39:00,65.2,60.2,29.71,SW,231,15.0,18.0,84,0.00,,,0.00,Wunderground v.1.15,2013-03-17 07:39:00,
2013-03-17 02:45:00,65.2,60.2,29.71,SW,231,14.0,15.0,84,0.00,,,0.00,Wunderground v.1.15,2013-03-17 07:45:00,
2013-03-17 02:51:00,65.1,60.1,29.71,SW,220,12.0,13.0,84,0.00,,,0.00,Wunderground v.1.15,2013-03-17 07:51:00,
2013-03-17 02:57:00,65.1,60.1,29.71,SSW,208,12.0,13.0,84,0.00,,,0.00,Wunderground v.1.15,2013-03-17 07:57:00,
2013-03-17 03:03:00,65.2,60.2,29.72,SW,214,10.0,17.0,84,0.00,,,0.00,Wunderground v.1.15,2013-03-17 08:03:00,
2013-03-17 03:09:00,65.2,60.2,29.72,SSW,211,11.0,17.0,84,0.00,,,0.00,Wunderground v.1.15,2013-03-17 08:09:00,
2013-03-17 03:14:00,65.1,60.1,29.72,WSW,256,10.0,11.0,84,0.00,,,0.00,Wunderground v.1.15,2013-03-17 08:14:00,
2013-03-17 03:20:00,65.2,60.2,29.72,SW,226,11.0,11.0,84,0.00,,,0.00,Wunderground v.1.15,2013-03-17 08:20:00,
2013-03-17 03:25:00,65.2,60.2,29.72,SW,224,12.0,16.0,84,0.00,,,0.00,Wunderground v.1.15,2013-03-17 08:25:00,
2013-03-17 03:31:00,65.1,60.1,29.72,SW,224,12.0,12.0,84,0.00,,,0.00,Wunderground v.1.15,2013-03-17 08:31:00,
2013-03-17 03:37:00,65.1,60.1,29.72,WSW,237,10.0,12.0,84,0.00,,,0.00,Wunderground v.1.15,2013-03-17 08:37:00,
2013-03-17 03:42:00,65.0,60.0,29.72,SW,224,9.0,12.0,84,0.00,,,0.00,Wunderground v.1.15,2013-03-17 08:42:00,
2013-03-17 03:47:00,65.0,60.0,29.72,SW,221,9.0,12.0,84,0.00,,,0.00,Wunderground v.1.15,2013-03-17 08:47:00,
2013-03-17 03:53:00,64.9,59.9,29.71,SW,221,10.0,11.0,84,0.00,,,0.00,Wunderground v.1.15,2013-03-17 08:53:00,
2013-03-17 03:59:00,64.8,59.9,29.71,SSW,211,10.0,13.0,84,0.00,,,0.00,Wunderground v.1.15,2013-03-17 08:59:00,
2013-03-17 04:04:00,64.7,59.8,29.71,SW,217,9.0,11.0,84,0.00,,,0.00,Wunderground v.1.15,2013-03-17 09:04:00,
2013-03-17 04:09:00,64.7,60.1,29.71,SW,216,9.0,11.0,85,0.00,,,0.00,Wunderground v.1.15,2013-03-17 09:09:00,
2013-03-17 04:15:00,64.6,60.0,29.70,SW,222,9.0,12.0,85,0.00,,,0.00,Wunderground v.1.15,2013-03-17 09:15:00,
2013-03-17 04:20:00,64.6,60.0,29.71,SSW,195,8.0,8.0,85,0.00,,,0.00,Wunderground v.1.15,2013-03-17 09:20:00,
2013-03-17 04:25:00,64.5,59.9,29.70,SSW,208,7.0,9.0,85,0.00,,,0.00,Wunderground v.1.15,2013-03-17 09:25:00,
2013-03-17 04:31:00,64.5,59.9,29.70,SSW,210,6.0,8.0,85,0.00,,,0.00,Wunderground v.1.15,2013-03-17 09:31:00,
2013-03-17 04:37:00,64.5,59.9,29.69,SW,217,7.0,12.0,85,0.00,,,0.00,Wunderground v.1.15,2013-03-17 09:37:00,
2013-03-17 04:43:00,64.4,59.5,29.69,South,188,9.0,10.0,84,0.00,,,0.00,Wunderground v.1.15,2013-03-17 09:43:00,
2013-03-17 04:48:00,64.3,59.4,29.69,SSW,209,9.0,16.0,84,0.00,,,0.00,Wunderground v.1.15,2013-03-17 09:48:00,
2013-03-17 04:53:00,64.3,59.0,29.69,SW,222,9.0,9.0,83,0.00,,,0.00,Wunderground v.1.15,2013-03-17 09:53:00,
2013-03-17 04:59:00,64.2,58.9,29.70,South,169,7.0,9.0,83,0.00,,,0.00,Wunderground v.1.15,2013-03-17 09:59:00,
2013-03-17 05:04:00,64.2,58.9,29.70,SSW,208,6.0,9.0,83,0.00,,,0.00,Wunderground v.1.15,2013-03-17 10:04:00,
2013-03-17 05:10:00,64.2,58.9,29.70,SSW,201,5.0,6.0,83,0.00,,,0.00,Wunderground v.1.15,2013-03-17 10:10:00,
2013-03-17 05:15:00,64.2,59.3,29.70,SW,226,6.0,8.0,84,0.00,,,0.00,Wunderground v.1.15,2013-03-17 10:15:00,
2013-03-17 05:21:00,64.1,59.2,29.70,South,169,7.0,10.0,84,0.00,,,0.00,Wunderground v.1.15,2013-03-17 10:21:00,
2013-03-17 05:27:00,64.0,59.1,29.70,SE,142,7.0,10.0,84,0.00,,,0.00,Wunderground v.1.15,2013-03-17 10:27:00,
2013-03-17 05:32:00,63.9,59.0,29.69,SSE,167,6.0,9.0,84,0.00,,,0.00,Wunderground v.1.15,2013-03-17 10:32:00,
2013-03-17 05:37:00,63.7,58.8,29.69,SW,221,6.0,12.0,84,0.00,,,0.00,Wunderground v.1.15,2013-03-17 10:37:00,
2013-03-17 05:42:00,63.5,58.9,29.69,SE,145,7.0,9.0,85,0.00,,,0.00,Wunderground v.1.15,2013-03-17 10:42:00,
2013-03-17 05:48:00,63.4,58.8,29.68,SW,236,8.0,9.0,85,0.00,,,0.00,Wunderground v.1.15,2013-03-17 10:48:00,
2013-03-17 05:53:00,63.3,58.7,29.69,SW,217,7.0,9.0,85,0.00,,,0.00,Wunderground v.1.15,2013-03-17 10:53:00,
2013-03-17 05:58:00,63.3,59.0,29.69,South,188,7.0,9.0,86,0.00,,,0.00,Wunderground v.1.15,2013-03-17 10:58:00,
2013-03-17 06:04:00,63.2,58.9,29.68,SW,215,7.0,11.0,86,0.00,,,0.00,Wunderground v.1.15,2013-03-17 11:04:00,
2013-03-17 06:10:00,63.1,58.8,29.68,SSE,159,6.0,6.0,86,0.00,,,0.00,Wunderground v.1.15,2013-03-17 11:10:00,
2013-03-17 06:16:00,63.1,58.8,29.68,SSW,211,6.0,8.0,86,0.00,,,0.00,Wunderground v.1.15,2013-03-17 11:16:00,
2013-03-17 06:22:00,62.9,58.6,29.69,South,169,6.0,9.0,86,0.00,,,0.00,Wunderground v.1.15,2013-03-17 11:22:00,
2013-03-17 06:28:00,62.8,58.5,29.69,SSE,150,6.0,9.0,86,0.00,,,0.00,Wunderground v.1.15,2013-03-17 11:28:00,
2013-03-17 06:33:00,62.6,58.4,29.69,SW,214,6.0,7.0,86,0.00,,,0.00,Wunderground v.1.15,2013-03-17 11:33:00,
2013-03-17 06:38:00,62.6,58.4,29.69,SW,226,6.0,13.0,86,0.00,,,0.00,Wunderground v.1.15,2013-03-17 11:38:00,
2013-03-17 06:44:00,62.6,58.4,29.69,SSW,204,7.0,9.0,86,0.00,,,0.00,Wunderground v.1.15,2013-03-17 11:44:00,
2013-03-17 06:50:00,62.6,58.4,29.70,SW,229,6.0,6.0,86,0.00,,,0.00,Wunderground v.1.15,2013-03-17 11:50:00,
2013-03-17 06:56:00,62.6,58.4,29.71,WSW,253,5.0,7.0,86,0.00,,,0.00,Wunderground v.1.15,2013-03-17 11:56:00,
2013-03-17 07:01:00,62.7,58.5,29.71,SW,226,5.0,5.0,86,0.00,,,0.00,Wunderground v.1.15,2013-03-17 12:01:00,
2013-03-17 07:07:00,62.8,58.5,29.71,SW,221,4.0,6.0,86,0.00,,,0.00,Wunderground v.1.15,2013-03-17 12:07:00,
2013-03-17 07:13:00,62.9,58.6,29.71,SSW,211,5.0,8.0,86,0.00,,,0.00,Wunderground v.1.15,2013-03-17 12:13:00,
2013-03-17 07:19:00,63.0,58.7,29.71,SSW,199,6.0,8.0,86,0.00,,,0.00,Wunderground v.1.15,2013-03-17 12:19:00,
2013-03-17 07:25:00,63.1,58.5,29.71,SW,218,6.0,6.0,85,0.00,,,0.00,Wunderground v.1.15,2013-03-17 12:25:00,
2013-03-17 07:30:00,63.2,58.6,29.72,SW,224,6.0,6.0,85,0.00,,,0.00,Wunderground v.1.15,2013-03-17 12:30:00,
2013-03-17 07:35:00,63.2,58.6,29.72,SW,228,6.0,7.0,85,0.00,,,0.00,Wunderground v.1.15,2013-03-17 12:35:00,
2013-03-17 07:40:00,63.3,58.7,29.72,SW,236,7.0,7.0,85,0.00,,,0.00,Wunderground v.1.15,2013-03-17 12:40:00,
2013-03-17 07:46:00,63.3,58.7,29.72,South,176,5.0,7.0,85,0.00,,,0.00,Wunderground v.1.15,2013-03-17 12:46:00,
2013-03-17 07:52:00,63.3,58.7,29.72,SW,236,4.0,4.0,85,0.00,,,0.00,Wunderground v.1.15,2013-03-17 12:52:00,
2013-03-17 07:58:00,63.4,58.8,29.72,SW,222,5.0,10.0,85,0.00,,,0.00,Wunderground v.1.15,2013-03-17 12:58:00,
2013-03-17 08:04:00,63.5,58.6,29.72,SW,219,6.0,7.0,84,0.00,,,0.00,Wunderground v.1.15,2013-03-17 13:04:00,
2013-03-17 08:10:00,63.6,58.7,29.72,WSW,250,7.0,7.0,84,0.00,,,0.00,Wunderground v.1.15,2013-03-17 13:10:00,
2013-03-17 08:16:00,63.7,58.8,29.72,WSW,249,7.0,9.0,84,0.00,,,0.00,Wunderground v.1.15,2013-03-17 13:16:00,
2013-03-17 08:22:00,63.8,58.9,29.73,SSW,204,6.0,6.0,84,0.00,,,0.00,Wunderground v.1.15,2013-03-17 13:22:00,
2013-03-17 08:28:00,63.8,58.9,29.73,WSW,242,4.0,8.0,84,0.00,,,0.00,Wunderground v.1.15,2013-03-17 13:28:00,
2013-03-17 08:34:00,63.9,59.0,29.74,WSW,246,5.0,8.0,84,0.00,,,0.00,Wunderground v.1.15,2013-03-17 13:34:00,
2013-03-17 08:40:00,64.0,59.1,29.74,SW,236,6.0,6.0,84,0.00,,,0.00,Wunderground v.1.15,2013-03-17 13:40:00,
2013-03-17 08:45:00,64.0,58.7,29.75,West,266,4.0,6.0,83,0.00,,,0.00,Wunderground v.1.15,2013-03-17 13:45:00,
2013-03-17 08:52:00,64.1,58.8,29.75,WSW,246,3.0,4.0,83,0.00,,,0.00,Wunderground v.1.15,2013-03-17 13:52:00,
2013-03-17 08:58:00,64.3,59.0,29.75,WSW,244,3.0,4.0,83,0.00,,,0.00,Wunderground v.1.15,2013-03-17 13:58:00,
2013-03-17 09:03:00,64.4,59.1,29.75,SW,231,3.0,3.0,83,0.00,,,0.00,Wunderground v.1.15,2013-03-17 14:03:00,
2013-03-17 09:08:00,64.5,59.2,29.75,West,273,3.0,5.0,83,0.00,,,0.00,Wunderground v.1.15,2013-03-17 14:08:00,
2013-03-17 09:14:00,64.6,59.3,29.75,WSW,239,3.0,5.0,83,0.00,,,0.00,Wunderground v.1.15,2013-03-17 14:14:00,
2013-03-17 09:20:00,64.9,59.3,29.75,WSW,246,3.0,5.0,82,0.00,,,0.00,Wunderground v.1.15,2013-03-17 14:20:00,
2013-03-17 09:26:00,65.1,59.5,29.75,SW,226,3.0,5.0,82,0.00,,,0.00,Wunderground v.1.15,2013-03-17 14:26:00,
2013-03-17 09:32:00,65.2,59.6,29.75,SSW,204,4.0,7.0,82,0.00,,,0.00,Wunderground v.1.15,2013-03-17 14:32:00,
2013-03-17 09:37:00,65.4,59.8,29.75,West,259,5.0,7.0,82,0.00,,,0.00,Wunderground v.1.15,2013-03-17 14:37:00,
2013-03-17 09:42:00,65.7,59.7,29.75,SW,236,5.0,5.0,81,0.00,,,0.00,Wunderground v.1.15,2013-03-17 14:42:00,
2013-03-17 09:47:00,65.9,59.9,29.75,South,187,4.0,9.0,81,0.00,,,0.00,Wunderground v.1.15,2013-03-17 14:47:00,
2013-03-17 09:53:00,66.1,59.7,29.75,SSW,205,6.0,8.0,80,0.00,,,0.00,Wunderground v.1.15,2013-03-17 14:53:00,
2013-03-17 09:58:00,66.4,60.0,29.75,SW,222,7.0,9.0,80,0.00,,,0.00,Wunderground v.1.15,2013-03-17 14:58:00,
2013-03-17 10:03:00,66.6,59.5,29.75,SW,233,8.0,11.0,78,0.00,,,0.00,Wunderground v.1.15,2013-03-17 15:03:00,
2013-03-17 10:09:00,66.4,59.3,29.76,WSW,250,9.0,11.0,78,0.00,,,0.00,Wunderground v.1.15,2013-03-17 15:09:00,
2013-03-17 10:14:00,66.5,59.1,29.76,WSW,239,8.0,9.0,77,0.00,,,0.00,Wunderground v.1.15,2013-03-17 15:14:00,
2013-03-17 10:19:00,66.6,59.5,29.76,SSW,208,7.0,9.0,78,0.00,,,0.00,Wunderground v.1.15,2013-03-17 15:19:00,
2013-03-17 10:24:00,66.9,59.5,29.77,WSW,253,6.0,7.0,77,0.00,,,0.00,Wunderground v.1.15,2013-03-17 15:24:00,
2013-03-17 10:30:00,66.9,59.5,29.76,WSW,239,7.0,10.0,77,0.00,,,0.00,Wunderground v.1.15,2013-03-17 15:30:00,
2013-03-17 10:35:00,66.9,59.5,29.76,WSW,245,8.0,10.0,77,0.00,,,0.00,Wunderground v.1.15,2013-03-17 15:35:00,
2013-03-17 10:40:00,66.9,59.1,29.76,West,264,8.0,8.0,76,0.00,,,0.00,Wunderground v.1.15,2013-03-17 15:40:00,
2013-03-17 10:47:00,67.0,59.5,29.76,WSW,238,7.0,8.0,77,0.00,,,0.00,Wunderground v.1.15,2013-03-17 15:47:00,
2013-03-17 10:52:00,67.2,59.4,29.75,WSW,243,7.0,11.0,76,0.00,,,0.00,Wunderground v.1.15,2013-03-17 15:52:00,
2013-03-17 10:58:00,67.7,59.9,29.75,SW,235,8.0,11.0,76,0.00,,,0.00,Wunderground v.1.15,2013-03-17 15:58:00,
2013-03-17 11:04:00,68.3,59.7,29.75,SW,214,9.0,9.0,74,0.00,,,0.00,Wunderground v.1.15,2013-03-17 16:04:00,
2013-03-17 11:09:00,68.5,59.9,29.75,SW,235,9.0,10.0,74,0.00,,,0.00,Wunderground v.1.15,2013-03-17 16:09:00,
2013-03-17 11:14:00,68.7,59.7,29.75,SW,217,9.0,11.0,73,0.00,,,0.00,Wunderground v.1.15,2013-03-17 16:14:00,
2013-03-17 11:20:00,69.2,59.8,29.75,SW,222,8.0,8.0,72,0.00,,,0.00,Wunderground v.1.15,2013-03-17 16:20:00,
2013-03-17 11:25:00,69.5,58.9,29.75,West,264,8.0,10.0,69,0.00,,,0.00,Wunderground v.1.15,2013-03-17 16:25:00,
2013-03-17 11:31:00,69.7,59.1,29.74,WSW,255,9.0,9.0,69,0.00,,,0.00,Wunderground v.1.15,2013-03-17 16:31:00,
2013-03-17 11:37:00,70.1,59.9,29.74,West,273,9.0,10.0,70,0.00,,,0.00,Wunderground v.1.15,2013-03-17 16:37:00,
2013-03-17 11:42:00,70.6,59.1,29.74,SW,233,10.0,14.0,67,0.00,,,0.00,Wunderground v.1.15,2013-03-17 16:42:00,
2013-03-17 11:48:00,70.8,59.3,29.74,WSW,254,10.0,14.0,67,0.00,,,0.00,Wunderground v.1.15,2013-03-17 16:48:00,
2013-03-17 11:53:00,70.2,59.1,29.74,West,278,9.0,10.0,68,0.00,,,0.00,Wunderground v.1.15,2013-03-17 16:53:00,
2013-03-17 11:59:00,70.0,59.8,29.74,West,271,6.0,10.0,70,0.00,,,0.00,Wunderground v.1.15,2013-03-17 16:59:00,
2013-03-17 12:05:00,69.9,59.7,29.74,WNW,301,6.0,8.0,70,0.00,,,0.00,Wunderground v.1.15,2013-03-17 17:05:00,
2013-03-17 12:12:00,69.9,59.7,29.74,West,278,6.0,7.0,70,0.00,,,0.00,Wunderground v.1.15,2013-03-17 17:12:00,
2013-03-17 12:18:00,69.8,59.2,29.74,West,274,6.0,8.0,69,0.00,,,0.00,Wunderground v.1.15,2013-03-17 17:18:00,
2013-03-17 12:24:00,70.1,59.5,29.74,WSW,239,6.0,11.0,69,0.00,,,0.00,Wunderground v.1.15,2013-03-17 17:24:00,
2013-03-17 12:30:00,70.5,59.4,29.74,WNW,284,6.0,8.0,68,0.00,,,0.00,Wunderground v.1.15,2013-03-17 17:30:00,
2013-03-17 12:35:00,70.8,58.9,29.74,West,278,6.0,8.0,66,0.00,,,0.00,Wunderground v.1.15,2013-03-17 17:35:00,
2013-03-17 12:41:00,71.8,60.2,29.73,WSW,242,7.0,7.0,67,0.00,,,0.00,Wunderground v.1.15,2013-03-17 17:41:00,
2013-03-17 12:47:00,72.0,58.7,29.73,WSW,244,7.0,7.0,63,0.00,,,0.00,Wunderground v.1.15,2013-03-17 17:47:00,
2013-03-17 12:53:00,71.6,59.2,29.73,WNW,290,6.0,7.0,65,0.00,,,0.00,Wunderground v.1.15,2013-03-17 17:53:00,
2013-03-17 12:59:00,71.9,59.9,29.72,WNW,287,6.0,8.0,66,0.00,,,0.00,Wunderground v.1.15,2013-03-17 17:59:00,
2013-03-17 13:04:00,71.6,58.8,29.73,WSW,256,7.0,11.0,64,0.00,,,0.00,Wunderground v.1.15,2013-03-17 18:04:00,
2013-03-17 13:09:00,71.4,59.0,29.72,WSW,246,7.0,11.0,65,0.00,,,0.00,Wunderground v.1.15,2013-03-17 18:09:00,
2013-03-17 13:15:00,72.1,59.7,29.73,WSW,254,7.0,8.0,65,0.00,,,0.00,Wunderground v.1.15,2013-03-17 18:15:00,
2013-03-17 13:21:00,72.9,60.4,29.72,West,271,6.0,6.0,65,0.00,,,0.00,Wunderground v.1.15,2013-03-17 18:21:00,
2013-03-17 13:26:00,73.6,60.2,29.72,SSW,208,6.0,7.0,63,0.00,,,0.00,Wunderground v.1.15,2013-03-17 18:26:00,
2013-03-17 13:32:00,74.1,60.2,29.71,SSW,211,6.0,9.0,62,0.00,,,0.00,Wunderground v.1.15,2013-03-17 18:32:00,
2013-03-17 13:38:00,74.2,59.9,29.71,SSE,152,7.0,12.0,61,0.00,,,0.00,Wunderground v.1.15,2013-03-17 18:38:00,
2013-03-17 13:44:00,73.9,58.7,29.71,West,281,7.0,8.0,59,0.00,,,0.00,Wunderground v.1.15,2013-03-17 18:44:00,
2013-03-17 13:50:00,73.7,59.4,29.70,West,264,5.0,5.0,61,0.00,,,0.00,Wunderground v.1.15,2013-03-17 18:50:00,
2013-03-17 13:55:00,73.6,59.3,29.70,SSW,201,5.0,9.0,61,0.00,,,0.00,Wunderground v.1.15,2013-03-17 18:55:00,
2013-03-17 14:00:00,73.9,58.7,29.70,West,274,4.0,4.0,59,0.00,,,0.00,Wunderground v.1.15,2013-03-17 19:00:00,
2013-03-17 14:06:00,74.1,59.3,29.70,WSW,253,5.0,10.0,60,0.00,,,0.00,Wunderground v.1.15,2013-03-17 19:06:00,
2013-03-17 14:11:00,74.5,59.2,29.70,SSW,201,7.0,7.0,59,0.00,,,0.00,Wunderground v.1.15,2013-03-17 19:11:00,
2013-03-17 14:17:00,74.9,58.6,29.69,WSW,246,6.0,7.0,57,0.00,,,0.00,Wunderground v.1.15,2013-03-17 19:17:00,
2013-03-17 14:23:00,75.5,59.7,29.69,WSW,244,5.0,9.0,58,0.00,,,0.00,Wunderground v.1.15,2013-03-17 19:23:00,
2013-03-17 14:29:00,75.5,59.7,29.68,SW,231,7.0,9.0,58,0.00,,,0.00,Wunderground v.1.15,2013-03-17 19:29:00,
2013-03-17 14:35:00,75.2,58.9,29.68,West,259,6.0,7.0,57,0.00,,,0.00,Wunderground v.1.15,2013-03-17 19:35:00,
2013-03-17 14:40:00,75.8,59.0,29.68,WNW,294,5.0,6.0,56,0.00,,,0.00,Wunderground v.1.15,2013-03-17 19:40:00,
2013-03-17 14:45:00,76.0,59.2,29.67,SW,218,7.0,10.0,56,0.00,,,0.00,Wunderground v.1.15,2013-03-17 19:45:00,
2013-03-17 14:50:00,75.8,58.5,29.67,South,169,7.0,7.0,55,0.00,,,0.00,Wunderground v.1.15,2013-03-17 19:50:00,
2013-03-17 14:56:00,76.3,58.4,29.67,West,276,5.0,8.0,54,0.00,,,0.00,Wunderground v.1.15,2013-03-17 19:56:00,
2013-03-17 15:01:00,76.2,58.9,29.66,NNW,330,5.0,5.0,55,0.00,,,0.00,Wunderground v.1.15,2013-03-17 20:01:00,
2013-03-17 15:07:00,76.3,57.9,29.66,NW,308,5.0,9.0,53,0.00,,,0.00,Wunderground v.1.15,2013-03-17 20:07:00,
2013-03-17 15:13:00,76.2,58.9,29.66,WSW,246,5.0,8.0,55,0.00,,,0.00,Wunderground v.1.15,2013-03-17 20:13:00,
2013-03-17 15:19:00,77.3,59.4,29.65,South,191,4.0,8.0,54,0.00,,,0.00,Wunderground v.1.15,2013-03-17 20:19:00,
2013-03-17 15:25:00,77.5,58.5,29.65,West,280,5.0,6.0,52,0.00,,,0.00,Wunderground v.1.15,2013-03-17 20:25:00,
2013-03-17 15:30:00,77.4,58.4,29.65,West,281,4.0,5.0,52,0.00,,,0.00,Wunderground v.1.15,2013-03-17 20:30:00,
2013-03-17 15:35:00,77.4,57.3,29.65,WSW,257,5.0,10.0,50,0.00,,,0.00,Wunderground v.1.15,2013-03-17 20:35:00,
2013-03-17 15:40:00,77.1,58.1,29.65,NNW,335,5.0,5.0,52,0.00,,,0.00,Wunderground v.1.15,2013-03-17 20:40:00,
2013-03-17 15:46:00,77.5,59.0,29.64,West,275,5.0,9.0,53,0.00,,,0.00,Wunderground v.1.15,2013-03-17 20:46:00,
2013-03-17 15:52:00,77.5,57.9,29.64,West,266,5.0,7.0,51,0.00,,,0.00,Wunderground v.1.15,2013-03-17 20:52:00,
2013-03-17 15:58:00,77.7,57.0,29.64,West,270,4.0,9.0,49,0.00,,,0.00,Wunderground v.1.15,2013-03-17 20:58:00,
2013-03-17 16:03:00,77.7,57.6,29.64,WNW,298,5.0,8.0,50,0.00,,,0.00,Wunderground v.1.15,2013-03-17 21:03:00,
2013-03-17 16:09:00,77.9,57.2,29.64,SW,215,5.0,8.0,49,0.00,,,0.00,Wunderground v.1.15,2013-03-17 21:09:00,
2013-03-17 16:15:00,78.0,57.3,29.64,NW,323,7.0,10.0,49,0.00,,,0.00,Wunderground v.1.15,2013-03-17 21:15:00,
2013-03-17 16:21:00,78.6,56.7,29.63,SW,233,6.0,9.0,47,0.00,,,0.00,Wunderground v.1.15,2013-03-17 21:21:00,
2013-03-17 16:27:00,78.8,57.4,29.63,SW,225,6.0,9.0,48,0.00,,,0.00,Wunderground v.1.15,2013-03-17 21:27:00,
2013-03-17 16:32:00,78.6,57.8,29.63,SSW,205,7.0,11.0,49,0.00,,,0.00,Wunderground v.1.15,2013-03-17 21:32:00,
2013-03-17 16:38:00,78.6,57.3,29.63,WSW,239,7.0,11.0,48,0.00,,,0.00,Wunderground v.1.15,2013-03-17 21:38:00,
2013-03-17 16:44:00,78.8,57.4,29.63,West,273,6.0,8.0,48,0.00,,,0.00,Wunderground v.1.15,2013-03-17 21:44:00,
2013-03-17 16:50:00,78.8,56.9,29.63,West,278,6.0,6.0,47,0.00,,,0.00,Wunderground v.1.15,2013-03-17 21:50:00,
2013-03-17 16:55:00,78.9,58.1,29.63,West,280,4.0,6.0,49,0.00,,,0.00,Wunderground v.1.15,2013-03-17 21:55:00,
2013-03-17 17:00:00,79.1,55.9,29.63,SSW,201,4.0,6.0,45,0.00,,,0.00,Wunderground v.1.15,2013-03-17 22:00:00,
2013-03-17 17:05:00,79.3,56.7,29.63,West,273,6.0,10.0,46,0.00,,,0.00,Wunderground v.1.15,2013-03-17 22:05:00,
2013-03-17 17:11:00,79.5,56.3,29.63,West,271,7.0,8.0,45,0.00,,,0.00,Wunderground v.1.15,2013-03-17 22:11:00,
2013-03-17 17:17:00,79.1,56.5,29.62,West,274,7.0,11.0,46,0.00,,,0.00,Wunderground v.1.15,2013-03-17 22:17:00,
2013-03-17 17:22:00,79.0,55.8,29.62,West,259,7.0,10.0,45,0.00,,,0.00,Wunderground v.1.15,2013-03-17 22:22:00,
2013-03-17 17:28:00,79.2,55.4,29.62,West,260,7.0,10.0,44,0.00,,,0.00,Wunderground v.1.15,2013-03-17 22:28:00,
2013-03-17 17:33:00,79.6,56.4,29.62,SW,235,6.0,10.0,45,0.00,,,0.00,Wunderground v.1.15,2013-03-17 22:33:00,
2013-03-17 17:38:00,79.4,56.2,29.62,West,280,6.0,10.0,45,0.00,,,0.00,Wunderground v.1.15,2013-03-17 22:38:00,
2013-03-17 17:44:00,79.6,56.4,29.62,WNW,282,6.0,15.0,45,0.00,,,0.00,Wunderground v.1.15,2013-03-17 22:44:00,
2013-03-17 17:50:00,79.6,55.8,29.62,West,273,6.0,7.0,44,0.00,,,0.00,Wunderground v.1.15,2013-03-17 22:50:00,
2013-03-17 17:56:00,79.6,55.8,29.62,WNW,300,5.0,7.0,44,0.00,,,0.00,Wunderground v.1.15,2013-03-17 22:56:00,
2013-03-17 18:02:00,79.5,56.3,29.62,West,274,5.0,6.0,45,0.00,,,0.00,Wunderground v.1.15,2013-03-17 23:02:00,
2013-03-17 18:08:00,79.7,55.2,29.62,West,270,4.0,6.0,43,0.00,,,0.00,Wunderground v.1.15,2013-03-17 23:08:00,
2013-03-17 18:13:00,79.6,55.8,29.62,NW,311,4.0,4.0,44,0.00,,,0.00,Wunderground v.1.15,2013-03-17 23:13:00,
2013-03-17 18:18:00,79.7,55.2,29.62,WNW,303,4.0,8.0,43,0.00,,,0.00,Wunderground v.1.15,2013-03-17 23:18:00,
2013-03-17 18:24:00,79.7,55.2,29.62,West,273,5.0,8.0,43,0.00,,,0.00,Wunderground v.1.15,2013-03-17 23:24:00,
2013-03-17 18:29:00,79.7,54.6,29.62,SW,235,5.0,8.0,42,0.00,,,0.00,Wunderground v.1.15,2013-03-17 23:29:00,
2013-03-17 18:35:00,79.9,54.8,29.62,West,263,4.0,5.0,42,0.00,,,0.00,Wunderground v.1.15,2013-03-17 23:35:00,
2013-03-17 18:40:00,79.9,54.8,29.62,WSW,246,3.0,4.0,42,0.00,,,0.00,Wunderground v.1.15,2013-03-17 23:40:00,
2013-03-17 18:46:00,79.8,54.7,29.62,WNW,285,3.0,4.0,42,0.00,,,0.00,Wunderground v.1.15,2013-03-17 23:46:00,
2013-03-17 18:52:00,79.7,55.2,29.62,WSW,253,3.0,4.0,43,0.00,,,0.00,Wunderground v.1.15,2013-03-17 23:52:00,
2013-03-17 18:58:00,79.8,55.3,29.63,SW,225,3.0,4.0,43,0.00,,,0.00,Wunderground v.1.15,2013-03-17 23:58:00,
2013-03-17 19:03:00,79.6,55.8,29.63,SW,224,3.0,4.0,44,0.00,,,0.00,Wunderground v.1.15,2013-03-18 00:03:00,
2013-03-17 19:09:00,79.2,55.4,29.63,West,281,3.0,5.0,44,0.00,,,0.00,Wunderground v.1.15,2013-03-18 00:09:00,
2013-03-17 19:14:00,79.0,55.2,29.63,WNW,285,2.0,3.0,44,0.00,,,0.00,Wunderground v.1.15,2013-03-18 00:14:00,
2013-03-17 19:19:00,78.6,54.9,29.63,WNW,287,1.0,3.0,44,0.00,,,0.00,Wunderground v.1.15,2013-03-18 00:19:00,
2013-03-17 19:25:00,78.1,55.6,29.63,NW,325,0.0,1.0,46,0.00,,,0.00,Wunderground v.1.15,2013-03-18 00:25:00,
2013-03-17 19:31:00,76.6,54.9,29.63,NNE,18,1.0,4.0,47,0.00,,,0.00,Wunderground v.1.15,2013-03-18 00:31:00,
2013-03-17 19:37:00,75.7,55.2,29.63,NNE,20,2.0,4.0,49,0.00,,,0.00,Wunderground v.1.15,2013-03-18 00:37:00,
2013-03-17 19:42:00,74.9,55.0,29.64,NNE,19,1.0,1.0,50,0.00,,,0.00,Wunderground v.1.15,2013-03-18 00:42:00,
2013-03-17 19:48:00,73.9,54.6,29.63,NNE,19,1.0,1.0,51,0.00,,,0.00,Wunderground v.1.15,2013-03-18 00:48:00,
2013-03-17 19:53:00,73.2,54.5,29.63,NNE,19,0.0,0.0,52,0.00,,,0.00,Wunderground v.1.15,2013-03-18 00:53:00,
2013-03-17 19:59:00,72.6,55.0,29.64,ESE,114,0.0,0.0,54,0.00,,,0.00,Wunderground v.1.15,2013-03-18 00:59:00,
2013-03-17 20:05:00,71.8,54.3,29.64,ESE,114,0.0,0.0,54,0.00,,,0.00,Wunderground v.1.15,2013-03-18 01:05:00,
2013-03-17 20:10:00,71.2,54.7,29.64,ESE,115,0.0,1.0,56,0.00,,,0.00,Wunderground v.1.15,2013-03-18 01:10:00,
2013-03-17 20:15:00,71.2,54.2,29.64,ESE,115,1.0,1.0,55,0.00,,,0.00,Wunderground v.1.15,2013-03-18 01:15:00,
2013-03-17 20:20:00,70.7,54.2,29.64,ESE,114,1.0,1.0,56,0.00,,,0.00,Wunderground v.1.15,2013-03-18 01:20:00,
2013-03-17 20:26:00,69.9,54.0,29.64,ESE,114,0.0,1.0,57,0.00,,,0.00,Wunderground v.1.15,2013-03-18 01:26:00,
2013-03-17 20:31:00,69.3,53.9,29.64,ESE,114,0.0,1.0,58,0.00,,,0.00,Wunderground v.1.15,2013-03-18 01:31:00,
2013-03-17 20:36:00,69.1,54.2,29.65,ESE,114,0.0,1.0,59,0.00,,,0.00,Wunderground v.1.15,2013-03-18 01:36:00,
2013-03-17 20:42:00,69.0,54.1,29.65,NNE,13,1.0,2.0,59,0.00,,,0.00,Wunderground v.1.15,2013-03-18 01:42:00,
2013-03-17 20:48:00,68.8,54.3,29.65,SSE,152,2.0,2.0,60,0.00,,,0.00,Wunderground v.1.15,2013-03-18 01:48:00,
2013-03-17 20:54:00,68.0,54.0,29.65,SSE,149,1.0,1.0,61,0.00,,,0.00,Wunderground v.1.15,2013-03-18 01:54:00,
2013-03-17 20:59:00,67.9,54.0,29.65,SSE,149,1.0,1.0,61,0.00,,,0.00,Wunderground v.1.15,2013-03-18 01:59:00,
2013-03-17 21:04:00,67.5,54.0,29.65,SSE,150,0.0,0.0,62,0.00,,,0.00,Wunderground v.1.15,2013-03-18 02:04:00,
2013-03-17 21:10:00,67.2,53.7,29.65,SE,146,0.0,0.0,62,0.00,,,0.00,Wunderground v.1.15,2013-03-18 02:10:00,
2013-03-17 21:15:00,67.1,53.6,29.66,SE,146,0.0,0.0,62,0.00,,,0.00,Wunderground v.1.15,2013-03-18 02:15:00,
2013-03-17 21:20:00,66.9,53.5,29.66,SSE,148,0.0,1.0,62,0.00,,,0.00,Wunderground v.1.15,2013-03-18 02:20:00,
2013-03-17 21:26:00,66.4,53.4,29.66,ESE,121,1.0,2.0,63,0.00,,,0.00,Wunderground v.1.15,2013-03-18 02:26:00,
2013-03-17 21:32:00,66.3,53.3,29.66,SSE,163,1.0,1.0,63,0.00,,,0.00,Wunderground v.1.15,2013-03-18 02:32:00,
2013-03-17 21:37:00,65.9,53.4,29.67,SSE,163,0.0,1.0,64,0.00,,,0.00,Wunderground v.1.15,2013-03-18 02:37:00,
2013-03-17 21:42:00,65.6,53.1,29.67,SSE,163,0.0,0.0,64,0.00,,,0.00,Wunderground v.1.15,2013-03-18 02:42:00,
2013-03-17 21:48:00,65.5,53.4,29.67,WSW,250,1.0,1.0,65,0.00,,,0.00,Wunderground v.1.15,2013-03-18 02:48:00,
2013-03-17 21:54:00,65.6,53.5,29.67,WSW,250,1.0,1.0,65,0.00,,,0.00,Wunderground v.1.15,2013-03-18 02:54:00,
2013-03-17 21:59:00,65.6,53.5,29.67,WSW,250,1.0,1.0,65,0.00,,,0.00,Wunderground v.1.15,2013-03-18 02:59:00,
2013-03-17 22:04:00,65.8,53.3,29.67,WSW,255,1.0,1.0,64,0.00,,,0.00,Wunderground v.1.15,2013-03-18 03:04:00,
2013-03-17 22:09:00,66.1,53.6,29.67,WSW,255,1.0,1.0,64,0.00,,,0.00,Wunderground v.1.15,2013-03-18 03:09:00,
2013-03-17 22:15:00,66.3,53.3,29.67,West,262,0.0,1.0,63,0.00,,,0.00,Wunderground v.1.15,2013-03-18 03:15:00,
2013-03-17 22:21:00,66.3,53.3,29.67,West,269,1.0,1.0,63,0.00,,,0.00,Wunderground v.1.15,2013-03-18 03:21:00,
2013-03-17 22:27:00,66.6,53.2,29.67,West,269,1.0,1.0,62,0.00,,,0.00,Wunderground v.1.15,2013-03-18 03:27:00,
2013-03-17 22:32:00,66.5,53.5,29.67,WSW,250,1.0,2.0,63,0.00,,,0.00,Wunderground v.1.15,2013-03-18 03:32:00,
2013-03-17 22:38:00,65.8,52.9,29.67,WSW,246,1.0,2.0,63,0.00,,,0.00,Wunderground v.1.15,2013-03-18 03:38:00,
2013-03-17 22:44:00,65.6,53.1,29.67,WSW,242,1.0,3.0,64,0.00,,,0.00,Wunderground v.1.15,2013-03-18 03:44:00,
2013-03-17 22:50:00,65.2,52.7,29.67,WSW,244,1.0,1.0,64,0.00,,,0.00,Wunderground v.1.15,2013-03-18 03:50:00,
2013-03-17 22:55:00,65.0,52.9,29.67,SW,231,1.0,4.0,65,0.00,,,0.00,Wunderground v.1.15,2013-03-18 03:55:00,
2013-03-17 23:00:00,64.1,52.5,29.67,SW,233,1.0,1.0,66,0.00,,,0.00,Wunderground v.1.15,2013-03-18 04:00:00,
2013-03-17 23:02:00,64.3,52.7,29.67,SW,233,1.0,1.0,66,0.00,,,0.00,Wunderground v.1.15,2013-03-18 04:02:00,
2013-03-17 23:03:00,64.3,52.7,29.67,SW,233,1.0,1.0,66,0.00,,,0.00,Wunderground v.1.15,2013-03-18 04:03:00,
2013-03-17 23:08:00,65.3,52.8,29.67,NNE,15,1.0,2.0,64,0.00,,,0.00,Wunderground v.1.15,2013-03-18 04:08:00,
2013-03-17 23:13:00,65.6,52.7,29.67,NNE,32,1.0,2.0,63,0.00,,,0.00,Wunderground v.1.15,2013-03-18 04:13:00,
2013-03-17 23:19:00,65.7,52.8,29.68,NNE,32,1.0,2.0,63,0.00,,,0.00,Wunderground v.1.15,2013-03-18 04:19:00,
2013-03-17 23:25:00,65.1,52.6,29.67,ESE,115,1.0,1.0,64,0.00,,,0.00,Wunderground v.1.15,2013-03-18 04:25:00,
2013-03-17 23:31:00,64.7,52.2,29.67,ESE,116,0.0,1.0,64,0.00,,,0.00,Wunderground v.1.15,2013-03-18 04:31:00,
2013-03-17 23:36:00,65.1,52.6,29.67,ESE,104,1.0,2.0,64,0.00,,,0.00,Wunderground v.1.15,2013-03-18 04:36:00,
2013-03-17 23:42:00,65.1,52.6,29.68,SE,132,1.0,1.0,64,0.00,,,0.00,Wunderground v.1.15,2013-03-18 04:42:00,
2013-03-17 23:48:00,64.6,52.1,29.68,SSE,159,1.0,2.0,64,0.00,,,0.00,Wunderground v.1.15,2013-03-18 04:48:00,
2013-03-17 23:53:00,63.5,51.9,29.67,SSW,198,2.0,2.0,66,0.00,,,0.00,Wunderground v.1.15,2013-03-18 04:53:00,
2013-03-17 23:59:00,63.2,52.5,29.67,SE,138,2.0,2.0,68,0.00,,,0.00,Wunderground v.1.15,2013-03-18 04:59:00,